Regional Weather Roundup
Issued by NWS Kansas City/Pleasant Hill, MO

Home | Current Version | Previous Version | Graphics & Text | Print | Product List | Glossary Off
Versions: 1 2 3 4 5 6 7 8 9 10 11 12 13 14 15 16 17 18 19 20 21 22 23 24 25 26 27 28 29 30 31 32 33 34 35 36 37 38 39 40 41 42 43 44 45 46 47 48 49 50

000
ASUS43 KEAX 061010
RWREAX

WEATHER ROUNDUP FOR EASTERN KANSAS AND NORTHWEST MISSOURI
NATIONAL WEATHER SERVICE KANSAS CITY/PLEASANT HILL MO
400 AM CST FRI MAR 06 2015

KSZ040-057-103>105-MOZ028-029-037-043-061100-
...KANSAS CITY METROPOLITAN AREA...

CITY           SKY/WX    TMP DP  RH WIND       PRES   REMARKS
K.C. INTL      FAIR      26  15  63 S15       30.32F WCI  14
K.C. DOWNTOWN  CLEAR     27  14  58 S9        30.36F WCI  18
LEES SUMMIT    CLEAR     24  14  65 S12       30.36F WCI  13
OLATHE - IXD   CLEAR     24  16  71 S13       30.36F WCI  12
OLATHE - OJC   CLEAR     25  17  72 S10       30.34F WCI  15
LAWRENCE       CLEAR     24  16  71 S9        30.35F WCI  14

$$

MOZ001>008-011>017-020>025-030>033-038>040-044>046-053-054-061100-
...NORTHERN AND CENTRAL MISSOURI...

CITY           SKY/WX    TMP DP  RH WIND       PRES   REMARKS
ST. JOSEPH     CLEAR     24  16  71 S10       30.31F WCI  14
MOSBY          SUNNY     23  14  68 SE5       30.37F WCI  17
WARRENSBURG    CLEAR     25  14  63 S10G16    30.40F WCI  15
WHITEMAN AFB   CLEAR     21  12  67 S10       30.40F WCI  10
CLINTON        CLEAR     27  16  63 S9        30.44F WCI  17
SEDALIA        CLEAR     22  11  62 S10       30.43F WCI  11
WARSAW         NOT AVBL
MARSHALL       CLEAR     21  14  73 SE6       30.45F WCI  14
CHILLICOTHE      N/A     22  11  62 S8        30.38F WCI  12
MOBERLY        CLEAR     18   9  68 S7        30.44F WCI   8
KIRKSVILLE     CLEAR     15   9  76 S10       30.39F WCI   2

$$

MOZ041-047>049-056>058-063>065-088>090-097-061100-
...EASTERN AND SOUTHERN MISSOURI...

CITY           SKY/WX    TMP DP  RH WIND       PRES   REMARKS
ST. LOUIS INTL PTCLDY    16   6  65 SE6       30.53F WCI   7
SPIRIT OF STL  CLEAR     14   6  70 CALM      30.53F
COLUMBIA       CLEAR     16   9  74 SE8       30.45F WCI   5
JEFFERSON CITY CLEAR     18   9  68 E5        30.50F WCI  11
MEXICO         CLEAR     18  12  79 S9        30.46F WCI   6
HANNIBAL       CLEAR     12   3  67 S8        30.46S WCI   1
ROLLA          CLEAR     19   9  65 S8        30.45F WCI   9
LEBANON        CLEAR     19   9  63 S7        30.45F WCI  10
OSAGE BEACH    CLEAR     18   9  68 SE7       30.47S WCI   8
SPRINGFIELD    CLEAR     21  13  71 S10       30.45F WCI  10
BRANSON        CLEAR     19   9  63 CALM      30.48S
NEVADA         CLEAR     25  16  68 S12       30.44F WCI  14
JOPLIN         CLEAR     25  15  66 S8        30.46F WCI  16
WEST PLAINS    PTCLDY    14   6  70 S3        30.50S

$$

IAZ060-094-KSZ022-034>040-054-083-096-NEZ052-066-093-061100-
...KANSAS...SOUTHEAST NEBRASKA AND IOWA...

CITY           SKY/WX    TMP DP  RH WIND       PRES   REMARKS
TOPEKA         CLEAR     29  18  63 S9G17     30.32F WCI  20
MANHATTAN      CLEAR     30  21  69 SW9       30.30F WCI  22
EMPORIA        CLEAR     27  19  72 S14       30.33F WCI  16
CHANUTE        CLEAR     25  19  78 S10       30.42F WCI  15
WICHITA        CLEAR     28  19  69 S10       30.36F WCI  19
OMAHA          CLEAR     22  13  68 S12       30.20F WCI  10
LINCOLN        CLEAR     23  14  68 S3        30.21F
FALLS CITY     CLEAR     26  16  65 S14       30.24F WCI  14
LAMONI         MOCLDY    19  10  68 S12       30.28F WCI   7
DES MOINES     MOCLDY    22  10  60 S16       30.25F WCI   8

$$




USA.gov is the U.S. government's official web portal to all federal, state and local government web resources and services.